When you browse on this site, cookies collect data to enhance your experience and personalize the content and advertising you see.
Visit our Privacy Policy to learn more. By continuing to use the site, you agree to this use of cookies and data.
  • In Portugal
  • List of Countries
  • For 7 days
  • Water Temperature
  • Satellite Maps
  • Weather Map
  • Weather Widgets
  • user-avatar
    Login

    Hourly Weather Lipno

    Today, 21 April, Sunday

    Time Temperature Precipitation Wind Pressure Humidity
    00:00 +4°C° 0.1 mm 3 mps 766 mmHg 72%
    01:00 +3°C° 0.1 mm 3 mps 766 mmHg 73%
    02:00 +3°C° 0 mm 2 mps 765 mmHg 80%
    03:00 +2°C° 0 mm 3 mps 765 mmHg 80%
    04:00 +2°C° 0 mm 3 mps 765 mmHg 79%
    05:00 +1°C° 0 mm 3 mps 765 mmHg 79%
    06:00 +3°C° 0 mm 3 mps 766 mmHg 74%
    07:00 +4°C° 0 mm 3 mps 766 mmHg 69%
    08:00 +5°C° 0 mm 3 mps 766 mmHg 62%
    09:00 +8°C° 0 mm 3 mps 766 mmHg 56%
    10:00 +9°C° 0 mm 3 mps 766 mmHg 51%
    11:00 +11°C° 0 mm 3 mps 766 mmHg 45%
    12:00 +12°C° 0 mm 3 mps 766 mmHg 43%
    13:00 +13°C° 0 mm 3 mps 766 mmHg 40%
    14:00 +13°C° 0 mm 3 mps 766 mmHg 38%
    15:00 +13°C° 0 mm 3 mps 766 mmHg 38%
    16:00 +14°C° 0 mm 2 mps 766 mmHg 38%
    17:00 +14°C° 0 mm 2 mps 765 mmHg 38%
    18:00 +13°C° 0 mm 2 mps 766 mmHg 44%
    19:00 +10°C° 0 mm 2 mps 766 mmHg 50%
    20:00 +9°C° 0 mm 2 mps 766 mmHg 56%
    21:00 +8°C° 0 mm 2 mps 766 mmHg 59%
    22:00 +7°C° 0 mm 2 mps 767 mmHg 62%
    23:00 +7°C° 0 mm 2 mps 767 mmHg 65%

    Tomorrow, 22 April, Monday

    Time Temperature Precipitation Wind Pressure Humidity
    00:00 +7°C° 0 mm 2 mps 767 mmHg 66%
    01:00 +6°C° 0 mm 2 mps 767 mmHg 68%
    02:00 +6°C° 0 mm 2 mps 767 mmHg 69%
    03:00 +6°C° 0 mm 2 mps 767 mmHg 71%
    04:00 +6°C° 0 mm 2 mps 767 mmHg 73%
    05:00 +5°C° 0 mm 2 mps 767 mmHg 75%
    06:00 +7°C° 0 mm 2 mps 767 mmHg 70%
    07:00 +9°C° 0 mm 2 mps 768 mmHg 66%
    08:00 +10°C° 0 mm 2 mps 768 mmHg 61%
    09:00 +13°C° 0 mm 2 mps 768 mmHg 54%
    10:00 +15°C° 0 mm 2 mps 768 mmHg 47%
    11:00 +17°C° 0 mm 2 mps 768 mmHg 40%
    12:00 +17°C° 0 mm 2 mps 768 mmHg 38%
    13:00 +18°C° 0 mm 2 mps 768 mmHg 36%
    14:00 +18°C° 0 mm 2 mps 768 mmHg 34%
    15:00 +18°C° 0 mm 2 mps 767 mmHg 34%
    16:00 +18°C° 0 mm 2 mps 767 mmHg 35%
    17:00 +18°C° 0 mm 2 mps 767 mmHg 36%
    18:00 +16°C° 0 mm 2 mps 767 mmHg 42%
    19:00 +14°C° 0 mm 2 mps 768 mmHg 48%
    20:00 +13°C° 0 mm 2 mps 768 mmHg 53%
    21:00 +12°C° 0 mm 2 mps 768 mmHg 56%
    22:00 +10°C° 0 mm 2 mps 768 mmHg 59%
    23:00 +10°C° 0 mm 2 mps 769 mmHg 62%

    Day after tomorrow, 23 April, Tuesday

    Time Temperature Precipitation Wind Pressure Humidity
    00:00 +9°C° 0 mm 2 mps 769 mmHg 63%
    01:00 +9°C° 0 mm 2 mps 769 mmHg 64%
    02:00 +8°C° 0 mm 2 mps 769 mmHg 64%
    03:00 +8°C° 0 mm 2 mps 769 mmHg 66%
    04:00 +7°C° 0 mm 2 mps 770 mmHg 67%
    05:00 +7°C° 0 mm 2 mps 770 mmHg 68%
    06:00 +10°C° 0 mm 1 mps 770 mmHg 64%
    07:00 +11°C° 0 mm 1 mps 770 mmHg 59%
    08:00 +13°C° 0 mm 1 mps 770 mmHg 54%
    09:00 +14°C° 0 mm 1 mps 770 mmHg 48%
    10:00 +16°C° 0 mm 2 mps 770 mmHg 43%
    11:00 +17°C° 0 mm 2 mps 770 mmHg 38%
    12:00 +19°C° 0 mm 1 mps 770 mmHg 36%
    13:00 +19°C° 0 mm 1 mps 770 mmHg 35%
    14:00 +20°C° 0 mm 1 mps 769 mmHg 33%
    15:00 +20°C° 0 mm 1 mps 769 mmHg 34%
    16:00 +17°C° 0 mm 0 mps 769 mmHg 34%
    17:00 +17°C° 0 mm 0 mps 769 mmHg 35%
    18:00 +16°C° 0 mm 0 mps 769 mmHg 39%
    19:00 +15°C° 0 mm 1 mps 769 mmHg 44%
    20:00 +13°C° 0 mm 1 mps 769 mmHg 48%
    21:00 +13°C° 0 mm 1 mps 769 mmHg 50%
    22:00 +12°C° 0 mm 1 mps 769 mmHg 53%
    23:00 +11°C° 0 mm 1 mps 770 mmHg 55%

    24 April, Wednesday

    Time Temperature Precipitation Wind Pressure Humidity
    00:00 +11°C° 0 mm 1 mps 770 mmHg 57%
    01:00 +10°C° 0 mm 1 mps 770 mmHg 60%
    02:00 +10°C° 0 mm 1 mps 770 mmHg 62%
    03:00 +9°C° 0 mm 1 mps 770 mmHg 63%
    04:00 +8°C° 0 mm 0 mps 770 mmHg 64%
    05:00 +8°C° 0 mm 0 mps 770 mmHg 64%
    06:00 +9°C° 0 mm 0 mps 770 mmHg 59%
    07:00 +12°C° 0 mm 1 mps 770 mmHg 54%
    08:00 +14°C° 0 mm 1 mps 770 mmHg 49%
    09:00 +16°C° 0 mm 1 mps 770 mmHg 45%
    10:00 +17°C° 0 mm 2 mps 770 mmHg 40%
    11:00 +18°C° 0 mm 2 mps 769 mmHg 35%
    12:00 +19°C° 0 mm 3 mps 769 mmHg 35%
    13:00 +19°C° 0 mm 3 mps 769 mmHg 34%
    14:00 +20°C° 0 mm 3 mps 768 mmHg 33%
    15:00 +19°C° 0 mm 3 mps 768 mmHg 34%
    16:00 +19°C° 0 mm 3 mps 768 mmHg 34%
    17:00 +19°C° 0 mm 3 mps 767 mmHg 35%
    18:00 +18°C° 0 mm 3 mps 767 mmHg 41%
    19:00 +16°C° 0 mm 2 mps 767 mmHg 46%
    20:00 +14°C° 0 mm 2 mps 767 mmHg 52%
    21:00 +14°C° 0 mm 2 mps 767 mmHg 55%
    22:00 +13°C° 0 mm 2 mps 767 mmHg 58%
    23:00 +12°C° 0 mm 2 mps 767 mmHg 61%

    25 April, Thursday

    Time Temperature Precipitation Wind Pressure Humidity
    00:00 +12°C° 0 mm 2 mps 767 mmHg 63%
    01:00 +10°C° 0 mm 2 mps 767 mmHg 65%
    02:00 +10°C° 0 mm 3 mps 767 mmHg 67%
    03:00 +9°C° 0 mm 3 mps 767 mmHg 68%
    04:00 +9°C° 0 mm 3 mps 767 mmHg 68%
    05:00 +9°C° 0 mm 3 mps 767 mmHg 69%
    06:00 +10°C° 0 mm 4 mps 767 mmHg 65%
    07:00 +12°C° 0 mm 4 mps 766 mmHg 60%
    08:00 +13°C° 0 mm 4 mps 766 mmHg 56%
    09:00 +15°C° 0 mm 5 mps 766 mmHg 50%
    10:00 +16°C° 0 mm 5 mps 766 mmHg 44%
    11:00 +19°C° 0 mm 6 mps 765 mmHg 39%
    12:00 +19°C° 0 mm 6 mps 765 mmHg 38%
    13:00 +20°C° 0 mm 6 mps 764 mmHg 37%
    14:00 +20°C° 0 mm 6 mps 764 mmHg 37%
    15:00 +20°C° 0 mm 5 mps 764 mmHg 38%
    16:00 +20°C° 0 mm 5 mps 763 mmHg 39%
    17:00 +19°C° 0 mm 5 mps 763 mmHg 41%
    18:00 +18°C° 0 mm 4 mps 763 mmHg 45%
    19:00 +17°C° 0 mm 4 mps 762 mmHg 50%
    20:00 +14°C° 0 mm 3 mps 762 mmHg 55%
    21:00 +14°C° 0 mm 3 mps 762 mmHg 57%
    22:00 +13°C° 0 mm 3 mps 762 mmHg 60%
    23:00 +13°C° 0 mm 3 mps 762 mmHg 63%

    26 April, Friday

    Time Temperature Precipitation Wind Pressure Humidity
    00:00 +12°C° 0 mm 3 mps 761 mmHg 65%
    01:00 +12°C° 0 mm 3 mps 761 mmHg 67%
    02:00 +11°C° 0 mm 3 mps 761 mmHg 69%
    03:00 +11°C° 0 mm 3 mps 761 mmHg 71%
    04:00 +10°C° 0 mm 3 mps 760 mmHg 73%
    05:00 +10°C° 0 mm 3 mps 760 mmHg 74%
    06:00 +11°C° 0 mm 3 mps 760 mmHg 70%
    07:00 +13°C° 0 mm 3 mps 759 mmHg 66%
    08:00 +14°C° 0 mm 3 mps 759 mmHg 62%
    09:00 +15°C° 0 mm 4 mps 759 mmHg 57%
    10:00 +18°C° 0 mm 4 mps 758 mmHg 52%
    11:00 +20°C° 0 mm 4 mps 758 mmHg 48%
    12:00 +20°C° 0 mm 4 mps 758 mmHg 46%
    13:00 +21°C° 0 mm 4 mps 757 mmHg 45%
    14:00 +22°C° 0 mm 4 mps 757 mmHg 43%
    15:00 +22°C° 0 mm 3 mps 756 mmHg 44%
    16:00 +22°C° 0 mm 3 mps 756 mmHg 44%
    17:00 +23°C° 0 mm 2 mps 755 mmHg 45%
    18:00 +20°C° 0 mm 2 mps 755 mmHg 51%
    19:00 +18°C° 0 mm 2 mps 755 mmHg 57%
    20:00 +17°C° 0 mm 2 mps 755 mmHg 64%
    21:00 +16°C° 0 mm 1 mps 755 mmHg 67%
    22:00 +15°C° 0 mm 1 mps 755 mmHg 71%
    23:00 +14°C° 0 mm 1 mps 755 mmHg 75%
    Show more